Regional Weather Roundup
Issued by NWS

Home | Current Version | Previous Version | Graphics & Text | Print | Product List | Glossary Off
Versions: 1 2 3 4 5 6 7 8 9 10 11 12 13 14 15 16 17 18 19 20 21 22 23 24 25 26 27 28 29 30 31 32 33 34 35 36 37 38 39 40 41 42 43 44 45 46 47 48 49 50

596
ASUS43 KTOP 201759
RWRKS

WEATHER ROUNDUP FOR KANSAS
NATIONAL WEATHER SERVICE GOODLAND KS
100 PM CDT THU JUL 20 2017

NOTE:  "FAIR" INDICATES FEW OR NO CLOUDS BELOW 12,000 FEET WITH NO
SIGNIFICANT WEATHER AND/OR OBSTRUCTIONS TO VISIBILITY.

KSZ001>006-013>018-027>032-041>047-201900-
NORTHWEST KANSAS

CITY           SKY/WX    TMP DP  RH WIND       PRES   REMARKS
GOODLAND       SUNNY     91  62  37 S12       30.05F
6HR MIN TEMP:  62; 6HR MAX TEMP:  91;

HAYS           SUNNY    100  61  27 S20       29.99F HX 101
HILL CITY      SUNNY     99  63  30 SW6       29.99F HX 101
6HR MIN TEMP:  76; 6HR MAX TEMP:  99;

RUSSELL        SUNNY    101  58  24 S21G29    29.98F HX 100
6HR MIN TEMP:  76; 6HR MAX TEMP: 101;

$$

KSZ061>065-074>080-084>089-201900-
SOUTHWEST KANSAS

CITY           SKY/WX    TMP DP  RH WIND       PRES   REMARKS
DODGE CITY     SUNNY     97  59  28 SW23      30.04F HX  96
6HR MIN TEMP:  74; 6HR MAX TEMP:  97;

ELKHART          N/A     92  53  26 SW13        N/A
GARDEN CITY    SUNNY     96  57  27 S22G31    30.04F HX  95
6HR MIN TEMP:  70; 6HR MAX TEMP:  96;

LIBERAL        SUNNY     96  59  29 SW22G30   30.08F HX  95
$$

KSZ066>073-081>083-090>101-201900-
SOUTHEAST KANSAS

CITY           SKY/WX    TMP DP  RH WIND       PRES   REMARKS
CHANUTE        SUNNY     96  72  45 S13       30.06F HX 104
6HR MIN TEMP:  78; 6HR MAX TEMP:  96;

COFFEYVILLE    SUNNY     94  74  52 S12       30.05F HX 104
6HR MIN TEMP:  76; 6HR MAX TEMP:  94;

HUTCHINSON     SUNNY    100  65  31 S16       30.02S HX 103
6HR MIN TEMP:  77; 6HR MAX TEMP: 100;

MEDICINE LODGE   N/A     99  63  30 W8        30.01F HX 101
NEWTON         SUNNY     98  68  37 S17       30.04F HX 103
PARSONS        SUNNY     94  73  50 SW12G17   30.07F HX 103
6HR MIN TEMP:  76; 6HR MAX TEMP:  94;

WICHITA INTL   SUNNY     99  68  36 SW12G23   30.02F HX 104
6HR MIN TEMP:  77; 6HR MAX TEMP:  99;

WICHITA JABRA  SUNNY     97  68  38 S14G23    30.03F HX 102
6HR MIN TEMP:  77; 6HR MAX TEMP:  98;

WICHITA MCCONL SUNNY     97  67  37 SW20      30.03F HX 101
WINFIELD       SUNNY     98  68  37 S18       30.05F HX 103
6HR MIN TEMP:  76; 6HR MAX TEMP:  98;

$$

KSZ007>012-019>026-033>040-048>060-102>105-201900-
NORTHEAST KANSAS

CITY           SKY/WX    TMP DP  RH WIND       PRES   REMARKS
CONCORDIA      SUNNY     98  69  38 S10       29.98F HX 104
6HR MIN TEMP:  78; 6HR MAX TEMP:  98;

EMPORIA        SUNNY     96  70  42 S18G25    30.03F HX 102
6HR MIN TEMP:  74; 6HR MAX TEMP:  96;

LAWRENCE       SUNNY     96  74  48 S9        30.02S HX 107
6HR MIN TEMP:  77; 6HR MAX TEMP:  96;

MANHATTAN      SUNNY    100  72  40 SW12      29.98F HX 109
6HR MIN TEMP:  78; 6HR MAX TEMP: 100;

OLATHE IND     SUNNY     94  74  52 S15       30.04F HX 104
6HR MIN TEMP:  77; 6HR MAX TEMP:  94;

OLATHE EXE     SUNNY     90  75  61 SW9       30.04F HX 100
6HR MIN TEMP:  75; 6HR MAX TEMP:  91;

SALINA         SUNNY    103  66  30 S12G22    29.98F HX 107
6HR MIN TEMP:  81; 6HR MAX TEMP: 103;

TOPEKA BILLARD SUNNY     96  75  50 SW8       30.00F HX 108
6HR MIN TEMP:  78; 6HR MAX TEMP:  96;

TOPEKA FORBES  SUNNY     97  73  45 S14G22    30.02S HX 107
6HR MIN TEMP:  78; 6HR MAX TEMP:  97;

$$




USA.gov is the U.S. government's official web portal to all federal, state and local government web resources and services.